Location: Cornospital
(48.0620°N, 3.3837°W)
Time: 20:51:04
(UTC+00:00)

Cosmos 2058 Rocket - Pass Details

Date: 17 June 2021
Orbit: 609 x 640 km, 82.5° (Epoch: 02 August)

Event Time Altitude Azimuth Distance (km) Brightness Sun altitude
Rises 23:36:16 0° 348° (NNW) 2,935 8.3 -18.0°
Reaches altitude 10° 23:38:31 10° 347° (NNW) 2,018 7.0 -18.1°
Maximum altitude 23:42:59 72° 263° (W) 660 3.1 -18.2°
Enters shadow 23:44:35 38° 189° (S) 953 3.5 -18.2°
